Tracking 20239 objects as of 23-Jan-2020
HD Live streaming from Space Station
objects crossing your sky now

STARLINK 1059

Track STARLINK 1059 now!
10-day predictions
STARLINK 1059 is classified as:


NORAD ID: 44764
Int'l Code: 2019-074BD
Perigee: 474.5 km
Apogee: 477.3 km
Inclination: 53.0 °
Period: 94.0 minutes
Semi major axis: 6846 km
RCS: Unknown
Launch date: November 11, 2019
Source: United States (US)
Launch site: AIR FORCE EASTERN TEST RANGE (AFETR)
aabbcc
Your satellite tracking list
Your tracking list is empty




NASA's NSSDC Master Catalog

Two Line Element Set (TLE):
1 44764U 19074BD  20023.50001157  .00478388  00000-0  14166-1 0  9999
2 44764  53.0079 171.0787 0002014  41.6430 189.8870 15.32364525 11455
Source of the keplerian elements: AFSPC